Location: Boca do Mato
(22.9085°S, 43.2930°W)
Time: 09:08:20
(UTC+00:00)

DELTA 2 R/B (1) - Visible Passes

Search period start: 23 October 2020 00:00
Search period end: 02 November 2020 00:00
Orbit: 790 x 803 km, 39.6° (Epoch: 22 October)

Date Brightness Start Highest point End Pass type
(mag) Time Alt. Az. Time Alt. Az. Time Alt. Az.
23 Oct 4.2 22:57:10 10° WSW 23:02:24 42° NW 23:02:54 41° NNW visible
24 Oct 4.2 22:26:10 10° WSW 22:31:31 48° NW 22:33:55 29° NNE visible
25 Oct 4.1 21:55:11 10° WSW 22:00:36 53° NW 22:05:01 15° NE visible
26 Oct 4.0 21:24:13 10° WSW 21:29:42 60° NW 21:35:09 10° NE visible
27 Oct 6.1 22:43:26 10° WNW 22:44:44 11° NW 22:46:01 10° NNW visible
28 Oct 6.0 22:11:34 10° WNW 22:13:50 12° NW 22:16:06 10° NNW visible
29 Oct 5.9 21:40:04 10° WNW 21:42:57 14° NW 21:45:51 10° NNW visible
